Regional Weather Roundup
Issued by NWS Upton, NY

Current Version | Previous Version | Text Only | Print | Product List | Glossary On
Versions: 1 2 3 4 5 6 7 8 9 10 11 12 13 14 15 16 17 18 19 20 21 22 23 24 25 26 27 28 29 30 31 32 33 34 35 36 37 38 39 40 41 42 43 44 45 46 47 48 49 50
000
ASUS41 KOKX 290305
RWROKX

REGIONAL WEATHER ROUNDUP
NATIONAL WEATHER SERVICE NEW YORK NY
1100 PM EDT MON JUL 28 2014

NOTE: "FAIR" INDICATES FEW OR NO CLOUDS BELOW 12,000 FEET WITH NO
SIGNIFICANT WEATHER AND/OR OBSTRUCTIONS TO VISIBILITY.

NYZ071-072-176-178-NJZ106-104-290400-
NEW YORK CITY METRO AREA


CITY           SKY/WX    TMP DP  RH WIND       PRES   REMARKS
CENTRAL PARK   CLEAR     70  57  63 W9        29.72R
LAGUARDIA APRT PTCLDY    71  58  63 NW15G26   29.68R
KENNEDY INTL   PTCLDY    72  58  61 NW17G25   29.69R
NEWARK/LIBERTY PTCLDY    69  58  67 W13G20    29.70R
BRNX BOT. GARD   N/A     68  57  68 W13       29.69S
TETERBORO      CLEAR     71  57  61 NW10G18   29.68R
$$

NYZ177-179-078>081-290400-
LONG ISLAND NEW YORK

CITY           SKY/WX    TMP DP  RH WIND       PRES   REMARKS
FARMINGDALE    CLEAR     69  59  70 W15G22    29.67R
ISLIP          PTCLDY    72  59  63 W14       29.64R
SHIRLEY        CLEAR     71  59  65 W12       29.65R
WESTHAMPTON    CLEAR     71  57  61 W10       29.65R
MONTAUK POINT    N/A     73  63  70 W12G22    29.63R
$$

NYZ052-065-067-290400-
HUDSON VALLEY

CITY           SKY/WX    TMP DP  RH WIND       PRES   REMARKS
WHITE PLAINS   CLEAR     67  58  72 NW18      29.67R
NEWBURGH       PTCLDY    66  59  77 W12G23    29.70R
MONTGOMERY     CLOUDY    65  57  75 VRB7      29.70R
POUGHKEEPSIE   CLOUDY    69  57  65 NW7       29.66R
ALBANY         LGT RAIN  62  59  90 W14       29.67R FOG
$$

NJZ001-105-106-008-010-013-015-019>022-104-290400-
NEW JERSEY

CITY           SKY/WX    TMP DP  RH WIND       PRES   REMARKS
NEWARK/LIBERTY PTCLDY    69  58  67 W13G20    29.70R
TETERBORO      CLEAR     71  57  61 NW10G18   29.68R
CALDWELL       CLEAR     68  56  65 NW9G18    29.71R
MORRISTOWN     CLEAR     68  57  68 W9        29.72R
SOMERVILLE     CLEAR     68  57  68 NW5       29.72R
LINDEN         FAIR      70  59  67 NW10      29.72S
SUSSEX         CLOUDY    67  57  70 W7        29.73R
ANDOVER          N/A     63  57  81 NW3       29.75R
TRENTON        PTCLDY    68  58  70 MISG      29.74R
MILLVILLE      CLOUDY    69  62  78 NW9       29.75S
ATLANTIC CITY  PTCLDY    69  60  73 NW8       29.73S
WRIGHTSTOWN    PTCLDY    69  60  74 NW10      29.72R
TOMS RIVER     MOCLDY    70  59  68 NW7       29.73R
BELMAR         CLEAR     70  57  64 W10G16    29.71S
$$

PAZ047>061-062-071-290400-
EASTERN PENNSYLVANIA

CITY           SKY/WX    TMP DP  RH WIND       PRES   REMARKS
PHILADELPHIA   MOCLDY    72  59  63 NW10      29.76R
ALLENTOWN      CLOUDY    67  55  65 NW13G23   29.77R
SCRANTON       CLOUDY    62  55  77 NW12      29.81R
$$

CTZ002-004>006-009-010-012-RIZ004-006-007-MAZ004-011-015-290400-
SOUTHERN NEW ENGLAND
 IN CT

CITY           SKY/WX    TMP DP  RH WIND       PRES   REMARKS
BRADLEY INTL   MOCLDY    69  62  78 W7        29.60R
HARTFORD       MOCLDY    71  61  70 W10G20    29.61R
DANBURY        MOCLDY    67  58  72 VRB7      29.68R
WTRBRY/OXFORD  CLOUDY    66  57  72 NW14      29.67R
BRIDGEPORT     CLEAR     71  62  73 W9        29.63R
MERIDEN        MOCLDY    70  62  76 W7        29.62R
NEW HAVEN      PTCLDY    73  62  68 W7        29.63R
CHESTER        FAIR      66  63  88 W6        29.63R
GROTON         CLEAR     71  61  70 W9        29.60R
WILLIMANTIC    CLEAR     67  63  87 SW5       29.60R

 IN RI

CITY           SKY/WX    TMP DP  RH WIND       PRES   REMARKS
PROVIDENCE     CLEAR     71  64  78 SW7       29.58R
BLOCK ISLAND   CLEAR     72  63  73 W12       29.61R
WESTERLY       CLEAR     72  64  76 W12       29.60R

 IN MA

CITY           SKY/WX    TMP DP  RH WIND       PRES   REMARKS
BOSTON         PTCLDY    70  63  78 SW13      29.54R
WORCESTER      CLEAR     64  60  87 W12       29.58S
WESTFIELD      MOCLDY    67  60  78 NW12G21   29.60R
PROVINCETOWN   CLEAR     70  66  88 SW14      29.57S
NANTUCKET      CLEAR     69  65  86 S16       29.62S
$$

ANZ330-335-338-340-345-350-353-355-290400-
COASTAL MARINE OBSERVATIONS


STATION/POSITION TIME  SKY/WX   TEMP    WIND        PRES    VSBY  WAVE
                                AIR SEA DIR/SP/G                  HT/PER
                 (UTC)          (F)     (DEG/KT/KT) (MB)    (MI)  (FT/S)
NY HARB ENTRANCE NOT AVBL
4S FIRE IS       NOT AVBL
23SW MTP         0300            72 69              1002.2          5/ 6
HUDSON CANYON    0300            76 75  260/ 14/ 17 1004.4          5/ 8
EXECUTION ROCKS  0300            70 70  280/ 16/ 21   N/A
WESTERN LI SOUND 0300            70     280/ 14/ 17   N/A           1/ 3
CENTRAL LI SOUND 0300            72 72  260/ 17/ 21   N/A           2/ 4
EASTERN LI SOUND 0200            71 68  240/ 14/ 17   N/A
ROBBINS REEF     0300            70     300/ 20/ 25   N/A
$$


>>>>>>>>>>>>>>>>>>>>>>>>>>>> KEY <<<<<<<<<<<<<<<<<<<<<<<<<<<
>                                                          <
>     SKY/WX - SKY CONDITION/PRESENT WEATHER               <
>     TMP    - TEMPERATURE IN FAHRENHEIT                   <
>     DP     - DEWPOINT IN FAHRENHEIT                      <
>     RH     - RELATIVE HUMIDITY IN PERCENT                <
>     WIND   - DIRECTION AND SPEED IN MPH                  <
>     PRES   - MEAN SEA LEVEL PRESSURE IN INCHES OF HG     <
>     WCI    - WIND CHILL INDEX                            <
>     VSB    - VISIBILITY IN MILES                         <
>     HX     - HEAT INDEX                                  <
>     TC     - TEMPERATURE IN CELSIUS                      <
>     VRB    - VARIABLE WIND DIRECTION                     <
>                                                          <
>>>>>>>>>>>>>>>>>>>>>>>>>>>> KEY <<<<<<<<<<<<<<<<<<<<<<<<<<<




USA.gov is the U.S. government's official web portal to all federal, state and local government web resources and services.